Regional Weather Roundup
Issued by NWS

Home | Current Version | Previous Version | Graphics & Text | Print | Product List | Glossary On
Versions: 1 2 3 4 5 6 7 8 9 10 11 12 13 14 15 16 17 18 19 20 21 22 23 24 25 26 27 28 29 30 31 32 33 34 35 36 37 38 39 40 41 42 43 44 45 46 47 48 49 50
000
ASUS45 KBOU 172007
RWRCO

WEATHER ROUNDUP FOR COLORADO
NATIONAL WEATHER SERVICE DENVER/BOULDER CO
200 PM MDT FRI APR 17 2015

NOTE: "FAIR" INDICATES FEW OR NO CLOUDS BELOW 12000 FEET WITH NO
SIGNIFICANT WEATHER AND/OR OBSTRUCTIONS TO VISIBILITY.

COZ001>005-013-030-031-172100-
...NORTHWEST COLORADO...

CITY           SKY/WX    TMP DP  RH WIND       PRES   REMARKS
CRAIG          CLOUDY    52  34  50 NE7G17    29.93F
HAYDEN         CLOUDY    45  30  57 SW5       29.93F
MEEKER         LGT RAIN  46  38  73 MISG      29.93F
MOUNT WERNER   NOT AVBL
STEAMBOAT SPGS CLOUDY    47  28  47 CALM      29.92F
WALDEN         CLOUDY    34  30  86 N15       30.00F WCI  24
$$

COZ006>008-011-172100-
...WEST CENTRAL VALLEYS...

CITY           SKY/WX    TMP DP  RH WIND       PRES   REMARKS
GRAND JUNCTION SNOW      31  31 100 SE6       30.04R VSB 1/2 WCI  25
MONTROSE       CLOUDY    40  32  73 VRB3      30.04F
EAGLE          CLOUDY    39  37  93 W14       29.97F
RIFLE          FLURRIES  36  34  92 W9        30.01F
DELTA          LGT RAIN  38  36  92 CALM      30.05F
NUCLA          LGT SNOW  34  32  93 SE8       30.10S VSB 1   WCI  27
$$

COZ017>023-064>068-172100-
...SOUTHWEST COLORADO...

CITY           SKY/WX    TMP DP  RH WIND       PRES   REMARKS
DURANGO        CLOUDY    41  21  44 W23       30.03S
CORTEZ         CLOUDY    41  26  55 W9        30.07F
PAGOSA SPRINGS CLOUDY    40   4  22 W9G23     30.02S
TELLURIDE      CLOUDY    31  23  72 W6        30.02F WCI  26
WOLF CREEK PAS CLOUDY    19   3  49 SW21G30   30.02F WCI   3
$$

COZ009-010-012-014-032>034-037-058>063-172100-
...CENTRAL COLORADO...

CITY           SKY/WX    TMP DP  RH WIND       PRES   REMARKS
ASPEN          CLOUDY    34  29  82 VRB5      29.92F WCI  30
BUENA VISTA    FLURRIES  31  26  81 SE13      29.99R WCI  21
COPPER MTN     CLOUDY    28  16  59 E29G45    29.93S WCI  13
BERTHOUD PASS  LGT SNOW  18   9  68 MISG      30.00F VSB 3/4
COTTONWOOD PAS PTSUNNY   30  27  86 E6        29.98R WCI  24
GUNNISON       MOSUNNY   30  21  69 SE3       30.01S
KREMMLING      CLOUDY    37  32  81 CALM      29.96F
LEADVILLE      LGT SNOW  23  15  71 VRB7      29.95R WCI  15
MONARCH PASS   CLOUDY    16  12  86 MISG      30.06S
SALIDA         PTSUNNY   35  29  80 CALM      30.06F
SUNLIGHT       FOG       28  27  93 W3        30.02F VSB<1/4
WILKERSON PASS MOSUNNY   27  23  86 S6        30.01R WCI  20
$$

COZ069>075-172100-
...SAN LUIS VALLEY/SANGRE DE CRISTO MOUNTAINS...

CITY           SKY/WX    TMP DP  RH WIND       PRES   REMARKS
ALAMOSA        PTSUNNY   41   9  26 MISG      29.97F
LA VETA PASS   CLOUDY    28  16  59 S6        30.01S WCI  22
SAGUACHE       CLOUDY    34  23  64 CALM      30.01S
$$

COZ035-036-038>040-172100-
...NORTHERN COLORADO FRONT RANGE...

CITY           SKY/WX    TMP DP  RH WIND       PRES   REMARKS
DENVER INTL AP CLOUDY    45  42  89 W9        29.97S
DMNS CITY PARK   N/A     44  40  88 E2        29.98S
AURORA         PTSUNNY   40  40 100 NW2       29.98S
FRONT RANGE AP NOT AVBL
ERIE MUNI ARPT PTSUNNY   44  42  92 N12       29.96F
BOULDER MUN AP CLOUDY    43  41  93 W5        29.97F
CENTENNIAL     PTSUNNY   42  36  79 NW3       29.98S
BROOMFIELD     PTSUNNY   41  41 100 NW17      29.97F
FORT COLLINS   CLOUDY    41  37  87 NW21      30.00F
LONGMONT       CLOUDY    44  40  86 NW6       30.00S
$$

COZ041-046-047-076>085-087-088-172100-
...PIKES PEAK/PALMER DIVIDE AND SOUTHERN FOOTHILLS...

CITY           SKY/WX    TMP DP  RH WIND       PRES   REMARKS
COLO. SPRINGS  MOSUNNY   50  17  27 SW18G25   29.97F
A. F. ACADEMY  SUNNY     43  20  39 SE15      29.96F
ELLICOTT       SUNNY    N/A N/A N/A SW14G23   29.96F
FALCON         SUNNY     46  21  36 S17       29.99S
FORT CARSON    SUNNY     51  19  28 S18G24    29.95S
LIMON          MOSUNNY   55  36  48 S15       29.96F
MONUMENT HILL  SUNNY     43  25  49 CALM      29.97F
TRINIDAD       SUNNY     56  17  21 S13G26    29.93F
$$

COZ042>045-048>051-090-091-172100-
...NORTHEAST COLORADO...

CITY           SKY/WX    TMP DP  RH WIND       PRES   REMARKS
GREELEY ARPT   CLOUDY    45  37  76 S9        29.97F
AKRON          LGT RAIN  49  48  97 SE18G28   29.99S
BURLINGTON     MOSUNNY   59  49  69 SE22      29.98F
WRAY           CLOUDY    56  51  84 E15G24    30.00F
STERLING       CLOUDY    52  48  87 SE17G23   29.98S
HOLYOKE        PTSUNNY   57  52  82 SE15G21   30.01S
FORT MORGAN    CLOUDY    48  46  91 SE8       29.96F
$$

COZ086-089-092>099-172100-
...SOUTHEAST COLORADO...

CITY           SKY/WX    TMP DP  RH WIND       PRES   REMARKS
PUEBLO         SUNNY     54  26  34 MISG      29.95F
LA JUNTA       CLOUDY    60  39  45 NW6       29.92F
LAMAR          MOSUNNY   68  37  32 S14G28    29.89F
SPRINGFIELD      N/A     64  19  17 S17       29.92F
$$


USA.gov is the U.S. government's official web portal to all federal, state and local government web resources and services.